Location: Ch�risy
(50.2331°N, 2.9131°E)
Time: 02:20:10
(UTC+00:00)

Cosmos 1844 Rocket - Pass Details

Date: 17 January 2021
Orbit: 825 x 843 km, 71.0° (Epoch: 24 February)

Event Time Altitude Azimuth Distance (km) Brightness Sun altitude
Rises 19:00:16 0° 197° (SSW) 3,388 6.1 -25.4°
Reaches altitude 10° 19:02:43 10° 195° (SSW) 2,457 5.3 -25.8°
Enters shadow 19:07:24 57° 160° (SSE) 991 2.8 -26.6°
